Location: Yellowknife
(62.4500°N, 114.3500°W)
Time: 01:30:50
(UTC-07:00)

Envisat - Pass Details

Date: 07 October 2023
Orbit: 762 x 764 km, 98.3° (Epoch: 07 December)

Event Time Altitude Azimuth Distance (km) Brightness Sun altitude
Rises 04:12:43 0° 20° (NNE) 3,248 7.2 -25.3°
Reaches altitude 10° 04:15:30 10° 34° (NE) 2,317 6.5 -25.1°
Maximum altitude 04:19:33 23° 87° (E) 1,581 5.1 -24.7°
Drops below altitude 10° 04:23:35 10° 140° (SE) 2,304 5.5 -24.4°
Enters shadow 04:25:46 - 152° (SSE) 3,021 6.0 -24.2°
